ERINB Weather Reports


time (UTC)temp
C
wind
direction
speed
KPH
gust
KPH
rain 1hr
cm
rain 24hr
cm
rain mn
cm
humidity
%
barometer
mb
20260504015140 23 0 0.0 0.0 0.00 0.00 0.00 1011.2
20260504014850 23 69 0.0 6.4 0.00 0.00 0.00 1011.3
20260504014440 23 69 0.0 6.4 0.00 0.00 0.00 1011.3
20260504013850 23 48 0.0 3.2 0.00 0.00 0.00 1011.4
20260504013740 23 48 0.0 3.2 0.00 0.00 0.00 1011.4
20260504013040 23 27 1.6 6.4 0.00 0.00 0.00 1011.4
20260504012850 23 98 0.0 4.8 0.00 0.00 0.00 1011.4
20260504012340 24 89 0.0 9.7 0.00 0.00 0.00 1011.6
20260504011851 24 134 0.0 8.0 0.00 0.00 0.00 1011.7
20260504011640 24 134 0.0 8.0 0.00 0.00 0.00 1011.7
20260504010940 24 104 1.6 9.7 0.00 0.00 0.00 1011.6
20260504010850 24 131 1.6 9.7 0.00 0.00 0.00 1011.6
20260504010240 25 143 0.0 3.2 0.00 0.00 0.00 1011.8
20260504005850 25 96 0.0 8.0 0.00 0.00 0.00 1011.8
20260504005540 25 96 0.0 8.0 0.00 0.00 0.00 1011.8
20260504004841 25 52 0.0 8.0 0.00 0.00 0.00 1012.0
20260504004140 26 108 0.0 3.2 0.00 0.00 0.00 1012.1
20260504003850 26 35 1.6 8.0 0.00 0.00 0.00 1012.2
20260504003440 26 35 1.6 8.0 0.00 0.00 0.00 1012.2
20260504002850 26 49 1.6 8.0 0.00 0.00 0.00 1012.2
20260504002740 26 49 1.6 8.0 0.00 0.00 0.00 1012.2
20260504002040 26 59 1.6 8.0 0.00 0.00 0.00 1012.2
20260504001850 26 79 0.0 4.8 0.00 0.00 0.00 1012.2
20260504001342 26 80 1.6 8.0 0.00 0.00 0.00 1012.2
20260504000840 26 35 1.6 11.3 0.00 0.00 0.00 1012.4
20260504000140 26 108 1.6 9.7 0.00 0.00 0.00 1012.4
20260503235850 26 105 1.6 9.7 0.00 0.00 0.00 1012.5
20260503235440 26 105 1.6 9.7 0.00 0.00 0.00 1012.5
20260503234850 26 53 1.6 9.7 0.00 0.00 0.00 1012.5
20260503234740 26 53 1.6 9.7 0.00 0.00 0.00 1012.5
20260503234039 26 118 1.6 9.7 0.00 0.00 0.00 1012.6
20260503233850 26 128 1.6 11.3 0.00 0.00 0.00 1012.6
20260503233339 26 66 0.0 3.2 0.00 0.00 0.00 1012.7
20260503232850 26 60 0.0 6.4 0.00 0.00 0.00 1012.8
20260503232640 26 60 0.0 6.4 0.00 0.00 0.00 1012.8
20260503231941 27 128 1.6 9.7 0.00 0.00 0.00 1012.8
20260503231850 26 156 0.0 1.6 0.00 0.00 0.00 1012.9
20260503231239 27 86 1.6 11.3 0.00 0.00 0.00 1012.8
20260503230850 27 70 1.6 11.3 0.00 0.00 0.00 1012.9
20260503230540 27 70 1.6 11.3 0.00 0.00 0.00 1012.9
20260503225839 27 62 3.2 14.5 0.00 0.00 0.00 1013.0
20260503225139 27 76 3.2 14.5 0.00 0.00 0.00 1013.0
20260503224850 27 80 3.2 12.9 0.00 0.00 0.00 1013.1
20260503224441 27 80 3.2 12.9 0.00 0.00 0.00 1013.1
20260503223849 27 101 3.2 14.5 0.00 0.00 0.00 1013.1
20260503223041 27 104 1.6 9.7 0.00 0.00 0.00 1013.1
20260503222849 26 45 4.8 16.1 0.00 0.00 0.00 1013.2
20260503222339 27 55 3.2 11.3 0.00 0.00 0.00 1013.2
20260503221852 27 48 3.2 14.5 0.00 0.00 0.00 1013.1
20260503221641 27 48 3.2 14.5 0.00 0.00 0.00 1013.1
20260503220940 27 131 3.2 14.5 0.00 0.00 0.00 1013.3
20260503220850 27 125 1.6 4.8 0.00 0.00 0.00 1013.3
20260503220239 27 207 1.6 8.0 0.00 0.00 0.00 1013.3
20260503215850 27 143 1.6 9.7 0.00 0.00 0.00 1013.3
20260503215542 27 143 1.6 9.7 0.00 0.00 0.00 1013.3
20260503214839 26 70 0.0 3.2 0.00 0.00 0.00 1013.3
20260503214139 26 108 3.2 11.3 0.00 0.00 0.00 1013.4
20260503213850 26 56 1.6 9.7 0.00 0.00 0.00 1013.4
20260503213439 26 56 1.6 9.7 0.00 0.00 0.00 1013.4
20260503212850 27 10 1.6 6.4 0.00 0.00 0.00 1013.4
20260503212039 26 120 1.6 4.8 0.00 0.00 0.00 1013.4
20260503211849 26 68 1.6 8.0 0.00 0.00 0.00 1013.3
20260503211341 26 222 1.6 8.0 0.00 0.00 0.00 1013.4
20260503210850 26 129 1.6 9.7 0.00 0.00 0.00 1013.4
20260503210640 26 129 1.6 9.7 0.00 0.00 0.00 1013.4
20260503205940 26 122 1.6 9.7 0.00 0.00 0.00 1013.4
20260503205851 26 162 1.6 8.0 0.00 0.00 0.00 1013.4
20260503205239 26 145 1.6 9.7 0.00 0.00 0.00 1013.5
20260503204850 25 59 1.6 8.0 0.00 0.00 0.00 1013.4
20260503204539 25 59 1.6 8.0 0.00 0.00 0.00 1013.4
20260503203840 26 173 0.0 1.6 0.00 0.00 0.00 1013.6
20260503203139 26 200 1.6 11.3 0.00 0.00 0.00 1013.6
20260503202849 25 60 1.6 9.7 0.00 0.00 0.00 1013.6
20260503202439 25 60 1.6 9.7 0.00 0.00 0.00 1013.6
20260503201853 25 177 1.6 8.0 0.00 0.00 0.00 1013.6
20260503201740 25 177 1.6 8.0 0.00 0.00 0.00 1013.6
20260503201039 25 14 1.6 4.8 0.00 0.00 0.00 1013.7
20260503200850 25 104 0.0 4.8 0.00 0.00 0.00 1013.7
20260503200537 25 79 0.0 4.8 0.00 0.00 0.00 1013.8
20260503200339 25 79 0.0 4.8 0.00 0.00 0.00 1013.8
20260503195852 25 48 1.6 9.7 0.00 0.00 0.00 1013.9
20260503195640 25 48 1.6 9.7 0.00 0.00 0.00 1013.9
20260503194939 25 76 1.6 6.4 0.00 0.00 0.00 1013.9
20260503194849 24 15 1.6 6.4 0.00 0.00 0.00 1013.8
20260503194240 25 65 1.6 8.0 0.00 0.00 0.00 1014.0
20260503193850 25 87 1.6 9.7 0.00 0.00 0.00 1014.0
20260503193539 25 87 1.6 9.7 0.00 0.00 0.00 1014.0
20260503192839 24 294 0.0 4.8 0.00 0.00 0.00 1014.0
20260503192139 23 0 0.0 0.0 0.00 0.00 0.00 1014.1
20260503191853 23 309 0.0 3.2 0.00 0.00 0.00 1013.9
20260503191440 23 309 0.0 3.2 0.00 0.00 0.00 1013.9
20260503190850 23 195 0.0 4.8 0.00 0.00 0.00 1014.1
20260503190739 23 195 0.0 4.8 0.00 0.00 0.00 1014.1
20260503190042 22 191 0.0 3.2 0.00 0.00 0.00 1014.0
20260503185849 22 262 0.0 6.4 0.00 0.00 0.00 1014.0
20260503185340 22 165 0.0 3.2 0.00 0.00 0.00 1014.1
20260503184851 22 179 0.0 4.8 0.00 0.00 0.00 1013.9
20260503184639 22 179 0.0 4.8 0.00 0.00 0.00 1013.9
20260503183939 22 277 1.6 8.0 0.00 0.00 0.00 1014.1
20260503183849 22 246 1.6 4.8 0.00 0.00 0.00 1014.0
20260503183239 22 98 1.6 4.8 0.00 0.00 0.00 1014.1
20260503182851 22 256 0.0 3.2 0.00 0.00 0.00 1013.9
20260503182540 22 256 0.0 3.2 0.00 0.00 0.00 1013.9
20260503181839 21 48 0.0 1.6 0.00 0.00 0.00 1014.0
20260503181139 21 69 0.0 6.4 0.00 0.00 0.00 1014.1
20260503180849 21 263 0.0 4.8 0.00 0.00 0.00 1014.2
20260503180439 21 263 0.0 4.8 0.00 0.00 0.00 1014.2
20260503175849 21 332 0.0 1.6 0.00 0.00 0.00 1014.1
20260503175739 21 332 0.0 1.6 0.00 0.00 0.00 1014.1
20260503175039 20 270 0.0 1.6 0.00 0.00 0.00 1014.1
20260503174850 20 136 0.0 3.2 0.00 0.00 0.00 1014.2
20260503174339 20 105 0.0 4.8 0.00 0.00 0.00 1014.1
20260503173849 19 0 0.0 0.0 0.00 0.00 0.00 1014.3
20260503173639 19 0 0.0 0.0 0.00 0.00 0.00 1014.3
20260503172939 18 250 0.0 3.2 0.00 0.00 0.00 1014.2
20260503172849 18 156 0.0 3.2 0.00 0.00 0.00 1014.2
20260503172239 18 87 0.0 6.4 0.00 0.00 0.00 1014.2
20260503171850 18 108 1.6 8.0 0.00 0.00 0.00 1014.3
20260503171539 18 108 1.6 8.0 0.00 0.00 0.00 1014.3
20260503171034 17 87 0.0 6.4 0.00 0.00 0.00 1014.2
20260503170839 17 87 0.0 6.4 0.00 0.00 0.00 1014.2
20260503170139 17 214 0.0 3.2 0.00 0.00 0.00 1014.3
20260503150939 13 0 0.0 0.0 0.00 0.00 0.00 1014.0
20260503150849 12 0 0.0 0.0 0.00 0.00 0.00 1013.6
20260503150238 12 0 0.0 0.0 0.00 0.00 0.00 1013.7
20260503131039 11 0 0.0 0.0 0.00 0.00 0.00 1013.2
20260503130848 11 0 0.0 0.0 0.00 0.00 0.00 1013.1
20260503130338 11 0 0.0 0.0 0.00 0.00 0.00 1013.1
20260503110439 13 0 0.0 0.0 0.00 0.00 0.00 1013.9
20260503100139 13 0 0.0 0.0 0.00 0.00 0.00 1014.2
20260503080938 15 0 0.0 0.0 0.00 0.00 0.00 1014.6
20260503080848 15 0 0.0 0.0 0.00 0.00 0.00 1014.6
20260503080238 15 0 0.0 0.0 0.00 0.00 0.00 1014.6
20260503072848 16 0 0.0 0.0 0.00 0.00 0.00 1014.7
20260503072738 16 0 0.0 0.0 0.00 0.00 0.00 1014.7
20260503072038 16 0 0.0 0.0 0.00 0.00 0.00 1014.5
20260503071848 15 0 0.0 0.0 0.00 0.00 0.00 1014.6
20260503071340 15 0 0.0 0.0 0.00 0.00 0.00 1014.7
20260503070848 15 0 0.0 0.0 0.00 0.00 0.00 1014.7
20260503070640 15 0 0.0 0.0 0.00 0.00 0.00 1014.7
20260503060338 16 0 0.0 0.0 0.00 0.00 0.00 1014.6
20260503054937 17 0 0.0 0.0 0.00 0.00 0.00 1014.7
20260503054847 17 0 0.0 0.0 0.00 0.00 0.00 1014.7
20260503054237 17 0 0.0 0.0 0.00 0.00 0.00 1014.4
20260503053847 17 0 0.0 0.0 0.00 0.00 0.00 1014.5
20260503053633 17 0 0.0 0.0 0.00 0.00 0.00 1014.5
20260503053537 17 0 0.0 0.0 0.00 0.00 0.00 1014.5
20260503052837 17 0 0.0 0.0 0.00 0.00 0.00 1014.6
20260503052137 17 0 0.0 0.0 0.00 0.00 0.00 1014.7
20260503051848 17 0 0.0 0.0 0.00 0.00 0.00 1014.6
20260503051437 17 0 0.0 0.0 0.00 0.00 0.00 1014.6
20260503050847 17 0 0.0 0.0 0.00 0.00 0.00 1014.6
20260503050737 17 0 0.0 0.0 0.00 0.00 0.00 1014.6
20260503050037 17 0 0.0 0.0 0.00 0.00 0.00 1014.6
20260503045848 17 0 0.0 0.0 0.00 0.00 0.00 1014.6
20260503045337 17 0 0.0 0.0 0.00 0.00 0.00 1014.7
20260503044848 17 0 0.0 0.0 0.00 0.00 0.00 1014.5
20260503044637 17 0 0.0 0.0 0.00 0.00 0.00 1014.5
20260503043937 17 0 0.0 0.0 0.00 0.00 0.00 1014.5
20260503043847 17 0 0.0 0.0 0.00 0.00 0.00 1014.5
20260503043239 18 0 0.0 0.0 0.00 0.00 0.00 1014.5
20260503042847 18 0 0.0 0.0 0.00 0.00 0.00 1014.4
20260503042537 18 0 0.0 0.0 0.00 0.00 0.00 1014.4
20260503041837 18 0 0.0 0.0 0.00 0.00 0.00 1014.1
20260503041137 18 0 0.0 0.0 0.00 0.00 0.00 1014.2
20260503040847 18 0 0.0 0.0 0.00 0.00 0.00 1014.2
20260503040552 18 0 0.0 0.0 0.00 0.00 0.00 1014.2
20260503040437 18 0 0.0 0.0 0.00 0.00 0.00 1014.2
20260503035847 18 0 0.0 0.0 0.00 0.00 0.00 1014.1
20260503035737 18 0 0.0 0.0 0.00 0.00 0.00 1014.1
20260503035038 18 42 0.0 3.2 0.00 0.00 0.00 1014.1
20260503034847 18 48 0.0 3.2 0.00 0.00 0.00 1013.9
20260503034337 18 0 0.0 0.0 0.00 0.00 0.00 1013.9
20260503033847 18 0 0.0 0.0 0.00 0.00 0.00 1014.1
20260503033638 18 0 0.0 0.0 0.00 0.00 0.00 1014.1
20260503032939 18 0 0.0 0.0 0.00 0.00 0.00 1013.8
20260503032847 18 0 0.0 0.0 0.00 0.00 0.00 1013.9
20260503032237 18 0 0.0 0.0 0.00 0.00 0.00 1014.0
20260503031847 18 0 0.0 0.0 0.00 0.00 0.00 1013.9
20260503031537 18 0 0.0 0.0 0.00 0.00 0.00 1013.9
20260503030839 18 0 0.0 0.0 0.00 0.00 0.00 1013.8
20260503030137 18 0 0.0 0.0 0.00 0.00 0.00 1013.6
20260503025849 18 0 0.0 0.0 0.00 0.00 0.00 1013.7
20260503025439 18 0 0.0 0.0 0.00 0.00 0.00 1013.7
20260503024847 19 0 0.0 0.0 0.00 0.00 0.00 1013.8
20260503024737 19 0 0.0 0.0 0.00 0.00 0.00 1013.8
20260503024037 19 0 0.0 0.0 0.00 0.00 0.00 1013.7
20260503023847 20 0 0.0 0.0 0.00 0.00 0.00 1013.6
20260503023337 20 0 0.0 0.0 0.00 0.00 0.00 1013.8
20260503022847 20 55 0.0 3.2 0.00 0.00 0.00 1013.8
20260503022637 20 55 0.0 3.2 0.00 0.00 0.00 1013.8
20260503021937 21 59 0.0 3.2 0.00 0.00 0.00 1013.6
20260503021847 21 291 0.0 1.6 0.00 0.00 0.00 1013.8
20260503021237 21 0 0.0 0.0 0.00 0.00 0.00 1013.6
20260503020847 21 0 0.0 0.0 0.00 0.00 0.00 1013.8
20260503020537 21 0 0.0 0.0 0.00 0.00 0.00 1013.8
20260503015837 22 70 0.0 6.4 0.00 0.00 0.00 1013.8